Location: Katowice
(50.2611°N, 19.0242°E)
Time: 04:59:47
(UTC+02:00)

A-11 Canister half - Pass Details

Date: 27 July 2019
Orbit: 1526 x 1683 km, 47.3° (Epoch: 23 August)

Event Time Altitude Azimuth Distance (km) Brightness Sun altitude
Rises 02:33:41 0° 289° (WNW) 4,852 11.6 -16.8°
Reaches altitude 10° 02:37:20 10° 279° (W) 3,839 10.9 -16.5°
Maximum altitude 02:45:16 30° 224° (SW) 2,558 9.6 -16.0°
Drops below altitude 10° 02:53:00 10° 168° (SSE) 3,728 10.6 -15.4°
Sets 02:56:31 0° 158° (SSE) 4,692 11.2 -15.1°
